Theta_e
315 315 314 313 311 310 309 308 305 317 317 301 301 298 301 303 306 310 308 309 307 306 306 304 304 304 306 311 310 304 305 300 299 303 311 316 313 311 308 302 303 304 302 304
314 315 314 313 311 311 306 304 309 319 314 297 298 301 302 304 304 305 306 307 309 310 306 302 308 309 312 312 309 305 305 299 296 298 302 312 306 307 310 309 308 303 301 305
314 314 314 313 312 312 307 305 306 311 311 309 303 300 301 301 307 306 307 307 310 307 305 306 305 309 315 313 310 326 313 300 297 295 299 303 303 306 308 305 301 302 307 308
314 314 314 313 312 312 307 305 305 310 304 305 305 305 303 302 303 306 307 306 308 306 302 304 305 310 312 312 320 308 304 297 298 301 305 305 305 308 309 305 304 300 308 308
314 314 314 314 313 311 306 302 306 310 307 310 306 303 302 302 305 306 304 304 309 308 303 305 305 309 309 306 305 302 303 297 299 299 305 304 304 305 310 310 307 304 306 306
314 315 315 314 314 310 309 312 314 310 305 307 305 304 303 304 306 309 310 310 308 307 309 312 311 312 312 309 305 303 301 298 296 295 302 302 297 303 305 306 313 309 307 310
314 315 315 316 315 312 307 307 308 306 302 305 305 307 310 307 306 306 310 311 309 312 315 315 313 311 312 312 309 308 301 300 299 295 297 291 301 314 315 314 316 318 318 319
314 315 316 316 316 314 307 308 309 308 302 307 308 308 309 312 309 308 309 313 314 316 312 306 303 303 306 310 312 306 306 301 297 295 294 301 308 311 313 311 310 319 320 324
314 315 316 316 315 314 309 308 312 311 305 306 309 307 311 307 309 310 309 315 315 313 309 305 299 298 303 303 307 309 307 307 305 301 295 296 306 315 318 317 306 318 320 321
314 315 315 315 315 314 310 308 311 311 305 309 310 306 307 312 310 308 311 312 311 311 306 302 300 300 308 302 302 302 303 304 302 300 300 304 311 316 320 304 305 316 317 317
314 314 315 315 315 314 311 309 315 313 307 308 312 312 309 310 309 304 307 310 309 307 302 303 303 302 304 303 307 304 304 301 301 302 301 298 314 313 311 311 313 314 314 314
313 314 314 315 315 315 314 309 317 318 310 307 313 315 315 314 314 308 308 308 311 312 307 305 306 304 309 306 303 312 304 306 305 305 304 311 312 312 314 315 313 313 312 314
313 314 314 314 315 315 313 309 314 314 309 307 307 308 315 316 316 316 307 311 313 312 314 312 312 308 309 304 305 309 312 315 306 306 308 311 312 313 315 315 314 314 314 314
313 314 314 314 315 315 313 309 314 313 310 304 306 315 313 317 316 316 315 312 314 314 314 310 310 308 312 305 308 306 310 313 309 307 310 312 313 314 314 315 316 315 316 315
313 314 314 314 315 314 313 313 315 318 312 304 307 313 314 313 314 314 315 312 312 313 311 309 307 310 309 309 308 305 308 305 304 302 308 309 309 312 314 313 313 314 314 313
313 314 314 315 315 313 313 311 315 315 319 311 303 312 312 313 316 313 312 312 313 312 310 309 310 310 308 303 301 307 309 312 311 307 311 311 313 315 316 314 315 316 314 314
314 314 314 314 313 311 309 307 310 311 318 309 303 302 311 314 313 311 311 314 313 313 310 307 308 308 311 306 301 307 310 312 313 313 312 309 312 311 315 315 316 316 316 316
314 314 314 313 312 311 310 316 311 312 315 313 300 301 306 317 308 306 311 309 312 311 308 309 305 310 309 302 307 310 312 313 312 312 313 312 313 313 313 314 315 313 313 314
313 313 313 312 314 313 312 317 315 316 316 302 302 298 299 312 309 309 309 310 304 311 308 309 309 305 301 307 309 309 311 310 309 311 312 312 311 311 312 313 313 312 312 313
312 311 312 309 311 317 320 315 311 309 309 307 304 307 302 309 307 306 306 308 304 301 305 312 304 304 309 311 312 312 311 311 312 309 308 310 309 310 310 311 312 312 312 313
312 307 308 316 321 316 309 303 302 301 301 305 302 306 306 313 305 304 310 305 304 299 303 303 301 301 307 312 313 314 314 313 313 312 312 312 311 310 309 309 310 310 309 308
307 306 313 319 310 303 299 299 303 302 298 306 305 306 308 309 313 308 308 305 305 298 309 303 297 304 310 313 314 314 315 314 314 314 313 313 313 311 310 309 308 308 308 309
317 313 310 307 304 294 295 292 295 296 304 307 307 304 307 311 311 307 307 302 300 310 302 298 302 309 313 314 315 316 316 315 315 316 315 313 312 312 310 308 308 309 309 309
310 305 290 298 295 296 297 298 300 304 307 305 306 306 306 310 306 306 303 305 306 299 296 298 306 311 314 315 316 315 314 316 314 315 314 313 312 310 310 309 308 308 307 308
305 302 291 295 299 301 302 303 306 306 309 308 308 309 309 306 305 305 304 301 297 300 299 304 310 313 314 314 316 315 315 315 315 315 313 313 313 311 309 309 309 308 307 306
304 300 298 300 299 299 301 303 304 309 309 310 309 305 303 302 301 300 298 297 296 300 307 310 314 315 316 315 317 317 316 315 315 315 314 314 312 309 309 308 308 306 305 304
301 299 302 300 300 300 302 304 304 310 309 303 305 299 298 306 299 299 303 299 305 309 311 314 316 315 316 317 317 316 316 316 315 315 315 313 312 311 308 305 306 306 305 305
Wind_Speed
14 15 15 16 17 25 6 5 4 10 11 4 4 9 5 8 18 20 17 12 9 9 11 4 15 18 13 17 15 11 11 6 10 14 19 18 10 9 8 7 5 3 6 0
14 15 14 14 13 13 6 5 5 6 8 4 8 9 14 20 20 19 13 12 7 12 11 7 5 13 16 14 14 12 7 5 7 13 9 6 4 5 8 5 6 6 4 5
14 15 14 13 12 9 4 4 4 3 6 9 11 11 15 17 16 21 21 17 9 10 11 9 8 12 8 9 10 11 8 7 8 9 10 1 8 7 7 9 6 5 6 10
14 14 13 13 13 10 3 5 6 7 6 10 15 13 12 16 14 14 14 15 10 9 7 7 8 10 12 5 10 6 8 5 7 10 13 8 8 11 12 9 8 2 18 18
13 13 13 14 14 17 4 4 5 8 11 11 13 12 13 17 20 12 13 13 10 9 6 7 6 8 8 7 4 5 3 5 6 7 10 8 11 9 3 11 8 6 7 7
13 13 14 14 13 12 4 6 7 5 7 8 9 7 15 17 19 18 13 14 9 13 8 7 7 10 11 2 8 6 6 6 2 4 6 7 7 6 5 4 17 8 9 6
14 13 14 13 10 7 5 4 7 4 7 9 10 17 20 14 16 13 11 8 9 14 6 7 9 10 12 10 10 10 7 4 4 4 3 4 5 20 12 22 15 13 13 12
14 15 14 13 10 8 5 5 4 4 6 9 13 19 17 19 8 4 7 5 10 8 5 2 5 6 8 9 5 7 9 5 2 6 4 6 6 16 13 18 16 14 12 14
14 15 12 11 11 11 6 8 7 5 4 2 17 17 13 7 12 8 8 6 8 8 3 1 4 4 5 4 1 2 5 4 6 5 2 4 6 16 16 7 10 14 14 14
13 13 13 13 13 11 6 7 9 4 4 7 15 9 8 9 11 4 3 10 4 5 4 2 4 5 5 4 4 5 3 1 5 2 4 4 6 9 5 10 0 8 12 10
11 12 13 13 14 12 6 8 10 4 5 11 14 16 7 8 7 5 10 7 4 2 1 1 4 3 6 3 3 4 4 3 3 4 9 6 17 9 8 6 9 10 9 10
12 13 14 14 13 12 9 5 8 5 3 10 15 18 14 7 7 4 6 3 6 2 0 3 3 4 4 3 2 9 8 4 4 6 9 4 11 16 12 13 7 9 9 10
13 13 14 13 12 11 7 5 6 6 6 8 8 8 3 5 6 4 1 5 7 7 4 3 4 6 3 4 5 7 9 13 11 10 8 13 12 11 13 11 9 10 9 12
14 13 13 13 11 10 8 4 6 5 5 4 1 2 3 5 5 7 6 7 10 5 2 2 3 4 9 11 14 13 4 5 5 10 13 14 13 10 10 10 11 10 9 8
14 13 13 12 12 11 8 7 6 3 2 4 6 11 8 6 6 8 8 9 5 4 3 3 2 4 9 7 8 14 10 10 4 5 7 6 6 10 13 10 8 7 7 8
14 13 11 10 10 12 4 2 5 7 5 3 4 7 9 6 1 5 6 4 3 2 2 3 4 3 5 7 13 13 11 17 16 10 8 10 13 15 15 13 14 15 11 7
14 13 11 10 8 3 2 2 3 8 6 2 4 6 6 4 5 1 1 4 1 2 3 5 6 6 9 11 13 11 12 12 11 8 7 10 12 11 14 16 17 16 15 13
14 12 11 11 11 8 5 1 8 3 2 3 3 5 5 2 3 1 2 2 3 6 2 4 5 5 5 6 8 10 10 12 13 12 12 10 10 13 15 14 14 15 14 14
14 13 12 4 1 2 2 8 4 1 1 4 1 4 3 4 4 3 0 2 4 2 5 5 6 4 7 7 9 7 8 6 6 7 7 10 12 11 11 13 14 13 13 14
12 3 3 2 1 4 6 3 2 4 2 2 2 3 2 2 4 1 3 2 3 3 2 4 5 5 6 6 6 5 3 5 9 10 11 10 10 10 11 13 14 14 14 13
3 2 2 2 2 3 4 3 2 7 3 3 4 5 0 4 3 3 2 3 3 3 1 4 3 3 3 4 6 5 6 6 5 6 6 5 7 10 13 14 16 15 16 15
3 4 5 2 5 4 6 4 4 4 3 3 2 2 4 6 6 1 5 4 2 5 4 4 3 3 2 4 3 4 3 5 7 7 8 8 10 12 11 11 12 13 13 14
3 3 1 4 2 6 5 6 4 4 6 4 5 4 3 5 5 3 0 4 3 4 4 3 3 4 4 1 2 5 6 6 5 6 5 8 8 10 11 11 11 12 13 14
2 3 8 5 5 5 2 3 3 2 3 6 6 4 4 4 5 4 4 3 2 3 3 3 3 5 5 3 4 5 5 4 7 5 5 6 6 6 7 10 11 12 13 15
5 5 4 3 1 3 6 6 4 3 4 5 4 3 4 3 3 3 4 3 4 5 4 3 4 6 4 3 2 4 5 4 4 4 4 4 5 5 5 7 9 11 13 15
4 5 2 3 2 3 4 5 4 5 6 5 2 2 2 5 3 4 6 3 4 3 2 4 5 4 3 2 1 2 2 2 5 2 3 5 4 6 5 6 8 10 13 14
3 1 1 1 2 2 2 2 4 6 5 3 3 4 4 2 3 2 3 3 3 3 3 3 2 1 3 3 3 2 2 3 5 4 4 2 4 4 5 6 6 7 9 12
Wind_Direction
341 336 335 334 338 334 351 299 252 136 143 153 205 234 239 276 278 295 295 291 302 301 306 293 211 207 195 202 197 212 195 195 249 255 265 189 181 169 139 120 245 194 153 64
338 337 336 334 343 8 322 282 270 150 164 222 227 239 244 251 266 271 284 282 271 285 293 326 312 217 209 201 181 192 204 222 257 294 321 164 204 219 169 149 103 246 163 262
334 336 335 330 334 350 323 277 259 171 204 244 260 249 247 238 246 255 269 282 269 274 289 282 296 307 270 199 182 168 160 183 184 224 235 236 182 202 218 165 161 219 161 183
331 333 333 330 325 325 288 241 257 23 196 225 231 255 279 291 254 236 246 271 257 253 269 282 283 288 291 197 140 123 128 216 225 250 261 295 298 221 210 209 234 182 172 168
332 333 332 331 329 325 219 288 345 341 294 294 207 222 239 261 275 259 243 240 259 273 260 250 302 336 319 147 118 116 152 235 234 254 273 266 262 292 220 214 221 233 168 218
334 335 334 333 339 335 295 336 337 304 292 306 325 227 216 238 258 278 233 231 214 263 264 305 317 298 294 188 135 167 180 173 188 248 278 297 324 295 289 29 41 71 64 308
336 336 334 338 347 9 317 289 303 296 304 322 300 308 318 240 245 258 292 261 191 240 360 351 301 283 287 305 188 155 186 166 136 207 310 265 236 33 66 75 46 40 48 65
336 335 331 335 343 342 304 299 293 318 299 301 317 340 324 327 258 206 276 10 343 144 102 6 294 296 313 296 234 170 159 174 199 152 201 222 16 35 55 73 36 30 30 31
335 334 335 343 343 345 317 292 277 267 298 213 327 314 358 344 347 325 221 62 28 11 95 88 241 236 254 246 314 353 144 110 116 37 198 190 1 15 342 108 45 25 29 28
336 337 340 340 342 344 331 280 299 295 286 269 340 345 357 356 336 284 341 341 52 22 39 333 237 245 248 239 208 245 104 37 126 35 100 33 336 345 305 72 274 42 41 25
334 331 331 332 335 341 340 283 275 272 295 300 333 333 357 341 359 12 317 336 350 51 112 275 274 221 242 243 248 222 125 148 185 130 54 345 317 36 85 121 46 41 34 22
331 328 325 326 328 333 336 280 318 339 254 290 295 287 284 281 290 319 323 262 336 13 86 260 327 318 334 27 141 24 44 357 113 77 137 173 42 79 66 72 59 34 31 17
327 324 322 322 323 326 335 292 313 299 258 268 249 268 230 326 288 10 334 311 347 338 328 292 268 63 10 77 61 37 26 42 107 92 89 75 53 40 63 60 48 32 25 22
326 323 318 318 321 320 320 287 294 297 294 271 275 90 314 278 11 332 295 291 305 276 290 253 8 86 48 67 89 71 356 13 51 68 33 59 27 39 47 37 31 18 19 14
325 323 320 322 325 320 289 252 271 281 340 315 311 301 296 242 56 316 311 300 329 321 331 46 42 57 62 64 75 51 29 38 77 81 39 70 19 37 32 29 6 0 13 345
327 327 322 323 330 330 292 323 57 358 343 334 322 331 299 71 285 255 302 338 321 316 9 98 75 293 107 57 79 71 49 47 46 42 22 37 25 25 16 11 3 2 352 338
325 325 316 314 325 322 307 321 340 329 316 10 333 333 292 291 205 279 322 360 330 307 50 36 75 36 81 59 62 37 40 50 41 27 9 18 20 12 10 6 0 354 347 346
321 319 307 298 296 274 283 203 208 296 108 54 16 303 261 15 305 120 270 169 11 7 59 18 68 45 57 68 62 52 36 40 33 20 30 23 19 20 9 359 354 353 348 345
311 306 298 293 183 268 57 134 130 219 355 98 116 252 310 7 267 172 29 72 67 316 48 32 61 59 55 61 66 55 51 46 27 36 34 33 28 7 359 354 352 344 336 333
303 294 234 257 48 322 9 119 121 3 5 35 265 225 224 333 312 139 75 68 90 75 25 90 73 71 76 57 46 51 62 37 29 34 27 31 15 4 349 356 350 342 335 332
216 221 267 57 49 32 51 340 147 188 222 109 288 270 355 351 51 308 28 106 102 89 12 77 70 89 61 338 67 25 9 48 48 27 54 36 16 9 4 1 356 349 344 337
311 286 277 184 65 25 358 324 329 8 34 305 274 301 74 249 229 47 353 54 38 94 109 76 97 111 135 24 27 335 312 3 58 22 40 44 42 27 11 6 354 343 335 329
216 223 325 65 177 65 16 19 27 351 323 328 318 340 310 333 6 62 153 58 56 66 60 74 86 140 103 103 327 336 9 112 67 38 27 56 53 42 21 3 352 345 339 333
300 39 16 9 20 28 15 347 314 316 333 341 332 300 19 360 26 355 36 105 161 95 92 94 132 118 115 63 11 27 59 27 64 32 8 65 56 47 31 14 359 348 347 340
31 40 44 40 316 269 308 303 298 3 323 341 348 345 12 21 30 9 11 53 57 33 64 109 148 129 110 84 32 4 65 35 54 355 354 66 58 40 31 9 4 3 355 350
44 42 7 346 287 13 345 340 330 10 324 294 237 335 73 48 27 37 17 44 37 91 141 141 132 125 147 128 160 45 40 297 97 35 14 58 52 51 38 11 14 16 3 355
63 77 190 263 259 278 285 288 307 320 293 27 352 36 28 286 78 102 7 48 80 65 65 84 74 66 56 44 46 357 265 343 90 56 81 7 79 89 43 14 19 10 7 0